Location: Ladd Observatory
(41.8387°N, 71.3996°W)
Time: 04:46:54
(UTC-05:00)

ISS - Visible Passes

Search period start: 20 January 2017 00:00
Search period end: 30 January 2017 00:00
Orbit: 399 x 410 km, 51.6° (Epoch: 20 January)

Date Brightness Start Highest point End Pass type
(mag) Time Alt. Az. Time Alt. Az. Time Alt. Az.
20 Jan -1.4 05:09:16 22° S 05:09:16 22° S 05:10:45 10° SSE visible
27 Jan -1.7 18:51:35 10° SW 18:53:25 28° SSW 18:53:25 28° SSW visible
28 Jan -1.9 17:59:51 10° SSW 18:02:34 24° SE 18:03:39 20° ESE visible
28 Jan -0.1 19:35:47 10° W 19:36:20 14° W 19:36:20 14° W visible
29 Jan -3.3 18:43:16 10° WSW 18:46:29 72° NW 18:46:29 72° NW visible
